Location: Unspecified
(41.5000°N, 0.0000°E)
Time: 01:56:25
(UTC+00:00)

Courier 1B Rocket - Pass Details

Date: 29 June 2019
Orbit: 920 x 1202 km, 28.3° (Epoch: 16 August)

Event Time Altitude Azimuth Distance (km) Brightness Sun altitude
Rises 00:23:59 0° 215° (SW) 4,075 - -25.1°
Reaches altitude 10° 00:28:02 10° 197° (SSW) 3,089 - -25.0°
Maximum altitude 00:32:36 17° 160° (SSE) 2,562 - -24.9°
Drops below altitude 10° 00:37:03 10° 122° (ESE) 2,998 - -24.8°
Exits shadow 00:37:13 10° 121° (ESE) 3,033 7.3 -24.8°
Sets 00:40:52 0° 104° (ESE) 3,904 8.1 -24.7°
